Location: Unspecified
(0.0000°N, 0.0000°E)
Time: 08:09:44
(UTC+00:00)

DMSP B5D2-5 - Visible Passes

Search period start: 09 June 2023 00:00
Search period end: 19 June 2023 00:00
Orbit: 711 x 814 km, 98.8° (Epoch: 08 June)

Date Brightness Start Highest point End Pass type
(mag) Time Alt. Az. Time Alt. Az. Time Alt. Az.
09 Jun 5.8 18:46:24 13° SE 18:49:58 28° ENE 18:54:06 10° NNE visible
09 Jun 7.4 20:26:34 12° SW 20:28:37 15° WSW 20:31:15 10° WNW visible
10 Jun 5.8 19:48:40 23° SSW 19:51:19 44° WSW 19:55:56 10° NNW visible
11 Jun 4.9 19:10:46 20° SSE 19:13:59 58° ENE 19:18:47 10° N visible
12 Jun 6.3 18:33:19 10° ESE 18:36:42 19° ENE 18:40:08 10° NNE visible
12 Jun 7.0 20:13:00 16° SW 20:15:21 22° WSW 20:19:04 10° NW visible
13 Jun 5.1 19:35:06 24° S 19:38:02 68° WSW 19:42:53 10° NNW visible
14 Jun 5.4 18:57:13 15° SE 19:00:43 38° ENE 19:05:16 10° N visible
14 Jun 7.7 20:38:20 10° WSW 20:39:23 11° WSW 20:40:25 10° W visible
15 Jun 6.4 19:59:27 20° SSW 20:02:04 33° WSW 20:06:27 10° NW visible
16 Jun 4.8 19:21:33 22° SSE 19:24:45 80° ENE 19:29:41 10° N visible
17 Jun 6.0 18:43:38 11° SE 18:47:27 26° ENE 18:51:32 10° NNE visible
17 Jun 7.4 20:23:48 12° SW 20:26:06 17° WSW 20:29:11 10° WNW visible
18 Jun 5.6 19:45:53 22° SSW 19:48:47 50° WSW 19:53:34 10° NNW visible
